Volver al catálogo

SL-14 R/B

ActivoPO
NORAD 15100·ROCKET BODY·🇷🇺 Russia

Lanzado Jul 5, 1984 desde Plesetsk Cosmodrome

Loading…

Próximos Pases (próximas 24 horas)

TLE

ActualizadoSource: Space-Track

Época: Sep 14, 2026, 22:29 UTC

1 15100U 84072B   26257.93700952  .00000042  00000-0  24619-4 0  9997
2 15100  82.5337 333.5284 0010986 222.6666 137.3643 13.84559822131895

Sigue SL-14 R/B en tiempo real con AllMySat

Download on the App Store